1488319200.22,45942,6.38,71940.8,-5.21,-6.13,-6.13,0,*58
1488319201.44,45943,6.38,71926.3,-5.19,-6.05,-6.01,0,*56
1488319202.63,45944,6.38,71926.0,-5.21,-6.05,-6.05,0,*5E
1488319203.88,45945,6.38,71880.3,-5.19,-6.19,-6.13,0,*5E
1488319205.09,45946,6.38,71896.3,-5.19,-6.05,-6.13,0,*50
1488319206.31,45947,6.38,71918.5,-5.19,-6.05,-6.05,0,*56
1488319207.51,45948,6.38,71964.0,-5.21,-6.13,-6.13,0,*52
1488319208.73,45949,6.38,71874.5,-5.19,-6.13,-6.13,0,*58
1488319209.95,45950,6.38,71862.5,-5.19,-6.13,-6.05,0,*57
1488319211.15,45951,6.38,71904.5,-5.21,-6.13,-6.13,0,*5A
1488319212.37,45952,6.38,71888.8,-5.21,-6.05,-6.27,0,*59
1488319213.57,45953,6.38,71910.3,-5.21,-6.05,-6.13,0,*5F
1488319214.76,45954,6.38,71914.5,-5.21,-6.13,-6.05,0,*58
1488319215.98,45955,6.38,71948.0,-5.19,-6.05,-6.05,0,*55
1488319217.2,45956,6.38,71944.8,-5.19,-6.05,-6.01,0,*52
1488319218.41,45957,6.38,71964.0,-5.19,-6.05,-5.97,0,*5F
1488319219.64,45958,6.38,71952.8,-5.19,-6.01,-6.01,0,*58
1488319220.83,45959,6.38,71952.3,-5.21,-6.01,-5.97,0,*5E
1488319222.03,45960,6.38,71986.3,-5.21,-6.01,-6.05,0,*5C
1488319223.25,45961,6.38,71988.8,-5.19,-6.01,-6.01,0,*52
1488319224.47,45962,6.38,72028.3,-5.19,-6.01,-5.97,0,*5D
1488319225.69,45963,6.38,72012.5,-5.19,-5.97,-6.01,0,*5C
1488319226.91,45964,6.38,72010.5,-5.19,-6.01,-5.97,0,*5B
1488319228.14,45965,6.38,71978.3,-5.19,-6.01,-6.01,0,*56
1488319229.33,45966,6.38,71856.8,-5.21,-6.13,-6.05,0,*59
1488319230.55,45967,6.38,71960.0,-5.19,-6.13,-6.05,0,*53
1488319231.77,45968,6.38,71922.8,-5.19,-6.13,-6.05,0,*5C
1488319232.97,45969,6.38,71968.5,-5.21,-6.13,-6.13,0,*51
1488319234.19,45970,6.38,72012.5,-5.19,-6.05,-6.05,0,*52
1488319235.38,45971,6.38,71952.3,-5.21,-6.05,-6.05,0,*58
1488319236.58,45972,6.38,71980.8,-5.21,-6.05,-6.01,0,*5F
1488319237.8,45973,6.38,71990.3,-5.19,-6.13,-6.01,0,*52
1488319239.02,45974,6.38,72008.0,-5.19,-6.05,-6.01,0,*52
1488319240.23,45975,6.38,71996.0,-5.19,-6.05,-6.01,0,*53
1488319241.43,45976,6.38,72040.5,-5.21,-6.05,-6.01,0,*5B
1488319242.65,45977,6.38,72012.0,-5.19,-6.01,-6.01,0,*55
1488319243.85,45978,6.38,72008.5,-5.21,-6.01,-6.01,0,*51
1488319245.07,45979,6.38,72032.0,-5.19,-5.97,-5.97,0,*5B
1488319246.29,45980,6.38,72002.0,-5.19,-5.97,-5.97,0,*5D
1488319247.51,45981,6.38,71960.8,-5.19,-6.01,-6.01,0,*5C
1488319248.73,45982,6.38,71938.0,-5.19,-6.01,-6.01,0,*5F
1488319249.95,45983,6.38,71936.0,-5.19,-5.97,-5.97,0,*5E
1488319251.17,45984,6.38,71962.3,-5.19,-6.01,-6.01,0,*59
1488319252.39,45985,6.38,71988.3,-5.19,-6.05,-6.01,0,*5C
1488319253.61,45986,6.38,71994.5,-5.19,-6.01,-6.01,0,*5B
1488319254.83,45987,6.38,71948.8,-5.19,-6.01,-6.01,0,*5A
1488319256.03,45988,6.38,71938.3,-5.17,-6.09,-6.01,0,*53
1488319257.25,45989,6.38,71878.8,-5.19,-6.05,-6.05,0,*54
1488319258.5,45990,6.38,71918.8,-5.19,-6.13,-6.19,0,*56
1488319259.72,45991,6.38,71970.0,-5.19,-6.05,-6.05,0,*5D
1488319260.93,45992,6.38,71954.5,-5.19,-6.05,-6.05,0,*5E
1488319262.15,45993,6.38,71928.0,-5.19,-6.05,-6.05,0,*5F
1488319263.37,45994,6.38,71904.3,-5.19,-6.01,-6.01,0,*58
1488319264.59,45995,6.38,71922.3,-5.19,-6.13,-6.13,0,*59
1488319265.87,45996,6.38,71924.8,-5.19,-6.19,-6.19,0,*5A
1488319267.15,45997,6.38,71950.5,-5.19,-6.19,-6.19,0,*5B
1488319268.36,45998,6.38,71966.0,-5.19,-6.05,-6.13,0,*53
1488319269.58,45999,6.38,71954.3,-5.19,-6.05,-6.05,0,*55
1488319270.8,46000,6.38,71948.0,-5.19,-6.05,-6.05,0,*5F
1488319272.01,46001,6.38,71924.3,-5.19,-6.05,-6.13,0,*59
1488319273.24,46002,6.38,71938.8,-5.19,-6.13,-6.13,0,*5D
1488319274.46,46003,6.38,71924.0,-5.19,-6.13,-6.13,0,*5C
1488319275.68,46004,6.38,71930.8,-5.19,-6.13,-6.13,0,*5B
1488319276.93,46005,6.38,71872.8,-5.19,-6.19,-6.13,0,*50
1488319278.21,46006,6.38,71924.0,-5.19,-6.19,-6.19,0,*59
1488319279.43,46007,6.38,71960.8,-5.21,-6.13,-6.19,0,*59
1488319280.63,46008,6.38,71966.3,-5.21,-6.05,-6.05,0,*5C
1488319281.84,46009,6.38,71980.0,-5.19,-6.05,-6.05,0,*56
1488319283.06,46010,6.38,71950.5,-5.19,-6.05,-6.13,0,*59
1488319284.28,46011,6.38,71968.8,-5.19,-6.01,-6.01,0,*5F
1488319285.5,46012,6.38,71986.3,-5.19,-6.01,-5.97,0,*50
1488319286.72,46013,6.38,71994.5,-5.19,-6.01,-6.01,0,*5D
1488319287.95,46014,6.38,72036.3,-5.19,-6.01,-6.01,0,*5A
1488319289.17,46015,6.38,71984.8,-5.19,-6.01,-6.01,0,*5B
1488319290.39,46016,6.38,71978.8,-5.19,-6.01,-6.01,0,*58
1488319291.61,46017,6.38,71990.0,-5.19,-5.97,-6.01,0,*55
1488319292.83,46018,6.38,71962.3,-5.19,-6.01,-5.97,0,*5A
1488319294.05,46019,6.38,71976.5,-5.19,-6.01,-6.01,0,*57
1488319295.27,46020,6.38,71954.5,-5.19,-6.05,-6.05,0,*5D
1488319296.49,46021,6.38,71974.5,-5.19,-6.05,-6.13,0,*5B
1488319297.71,46022,6.38,71924.8,-5.19,-6.13,-6.13,0,*5F
1488319298.9,46023,6.38,71928.3,-5.21,-6.13,-6.13,0,*55
1488319300.12,46024,6.38,71916.8,-5.19,-6.05,-6.05,0,*59
1488319301.34,46025,6.38,71936.8,-5.19,-6.13,-6.05,0,*5F
1488319302.62,46026,6.38,71874.8,-5.19,-6.19,-6.19,0,*5B
1488319303.86,46027,6.38,71898.8,-5.21,-6.27,-6.27,0,*51
1488319305.14,46028,6.38,71912.8,-5.19,-6.27,-6.19,0,*58
1488319306.34,46029,6.38,71916.8,-5.21,-6.13,-6.13,0,*5F
1488319307.56,46030,6.38,71926.3,-5.19,-6.13,-6.13,0,*5C
1488319308.8,46031,6.38,71902.5,-5.19,-6.19,-6.13,0,*57
1488319310.05,46032,6.38,71918.0,-5.19,-6.19,-6.13,0,*54
1488319311.33,46033,6.38,71898.5,-5.19,-6.19,-6.19,0,*5F
1488319312.58,46034,6.38,71948.0,-5.21,-6.27,-6.19,0,*5E
1488319313.83,46035,6.38,71920.0,-5.21,-6.19,-6.27,0,*5F
1488319315.08,46036,6.38,71908.0,-5.21,-6.27,-6.27,0,*51
1488319316.3,46037,6.38,71914.0,-5.21,-6.27,-6.31,0,*57
1488319317.55,46038,6.38,71918.5,-5.21,-6.27,-6.27,0,*5F
1488319318.81,46039,6.38,71984.0,-5.19,-6.27,-6.27,0,*55
1488319320.04,46040,6.38,71942.3,-5.21,-6.19,-6.13,0,*5A
1488319321.29,46041,6.38,71936.5,-5.21,-6.27,-6.19,0,*5C
1488319322.53,46042,6.38,71940.0,-5.21,-6.27,-6.27,0,*52
1488319323.8,46043,6.38,71920.8,-5.19,-6.27,-6.27,0,*58
1488319325.05,46044,6.38,71940.3,-5.21,-6.19,-6.27,0,*59
1488319326.31,46045,6.38,71958.8,-5.21,-6.19,-6.19,0,*55
1488319327.56,46046,6.38,71960.0,-5.21,-6.19,-6.19,0,*56
1488319328.76,46047,6.38,71952.8,-5.21,-6.05,-6.05,0,*57
1488319330.01,46048,6.38,71980.3,-5.21,-6.19,-6.19,0,*58
1488319331.24,46049,6.38,71992.3,-5.21,-6.19,-6.13,0,*53
1488319332.44,46050,6.38,71976.3,-5.21,-6.13,-6.05,0,*56
1488319333.69,46051,6.38,71948.8,-5.21,-6.27,-6.19,0,*5D
1488319334.94,46052,6.38,71962.0,-5.21,-6.19,-6.27,0,*5E
1488319336.18,46053,6.38,71982.3,-5.21,-6.27,-6.19,0,*5F
1488319337.38,46054,6.38,72024.8,-5.21,-6.13,-6.05,0,*52
1488319338.58,46055,6.38,72012.3,-5.21,-6.05,-6.05,0,*54
1488319339.77,46056,6.38,72004.0,-5.21,-6.05,-6.05,0,*57
1488319340.96,46057,6.38,71978.3,-5.21,-6.05,-6.05,0,*56
1488319342.16,46058,6.38,72000.5,-5.21,-6.05,-6.05,0,*59
1488319343.35,46059,6.38,71994.0,-5.21,-6.13,-6.05,0,*5F
1488319344.55,46060,6.38,71960.5,-5.21,-6.05,-6.05,0,*52
1488319345.75,46061,6.38,71948.3,-5.21,-6.13,-6.13,0,*53
1488319346.97,46062,6.38,71946.8,-5.19,-6.05,-6.13,0,*5C
1488319348.16,46063,6.38,71956.5,-5.21,-6.13,-6.13,0,*51
1488319349.36,46064,6.38,71948.8,-5.21,-6.05,-6.05,0,*56
1488319350.55,46065,6.38,71950.5,-5.21,-6.13,-6.13,0,*57
1488319351.78,46066,6.38,72006.8,-5.21,-6.13,-6.27,0,*53
1488319352.98,46067,6.38,72000.0,-5.21,-6.13,-6.05,0,*52
1488319354.17,46068,6.38,71990.3,-5.21,-6.13,-6.05,0,*5D
1488319355.37,46069,6.38,72012.3,-5.21,-6.13,-6.05,0,*5C
1488319356.57,46070,6.38,71978.3,-5.21,-6.13,-6.13,0,*53
1488319357.77,46071,6.38,71976.3,-5.21,-6.13,-6.05,0,*55
1488319358.99,46072,6.38,71962.8,-5.19,-6.13,-6.13,0,*5A
1488319360.19,46073,6.38,71970.8,-5.21,-6.13,-6.13,0,*50
1488319361.38,46074,6.38,71938.0,-5.21,-6.05,-6.13,0,*50
1488319362.64,46075,6.38,71954.3,-5.21,-6.19,-6.19,0,*56
1488319363.89,46076,6.38,71962.8,-5.21,-6.19,-6.19,0,*55
1488319365.12,46077,6.38,72024.5,-5.21,-6.19,-6.05,0,*59
1488319366.31,46078,6.38,71962.3,-5.21,-6.05,-6.05,0,*5B
1488319367.51,46079,6.38,71980.0,-5.21,-6.13,-6.13,0,*5A
1488319368.71,46080,6.38,71942.8,-5.21,-6.13,-6.13,0,*5C
1488319369.96,46081,6.38,71958.8,-5.21,-6.19,-6.19,0,*5D
1488319371.21,46082,6.38,71914.5,-5.21,-6.19,-6.27,0,*53
1488319372.44,46083,6.38,71892.0,-5.21,-6.19,-6.13,0,*55
1488319373.69,46084,6.38,71892.5,-5.21,-6.27,-6.19,0,*55
1488319374.88,46085,6.38,71902.5,-5.21,-6.39,-6.39,0,*59
1488319376.13,46086,6.38,71892.8,-5.25,-6.23,-6.23,0,*5E
1488319377.38,46087,6.38,71906.3,-5.21,-6.27,-6.19,0,*56
1488319378.6,46088,6.38,71908.8,-5.21,-6.19,-6.13,0,*5E
1488319379.83,46089,6.38,71900.3,-5.21,-6.19,-6.13,0,*5F
1488319381.08,46090,6.38,71922.3,-5.21,-6.27,-6.19,0,*50
1488319382.3,46091,6.38,71926.3,-5.25,-6.13,-6.19,0,*52
1488319383.53,46092,6.38,71968.3,-5.25,-6.19,-6.09,0,*5A
1488319384.73,46093,6.38,71984.0,-5.25,-6.09,-6.05,0,*56
1488319385.92,46094,6.38,72004.5,-5.25,-6.05,-6.01,0,*59
1488319387.12,46095,6.38,72032.8,-5.25,-6.01,-6.01,0,*5C
1488319388.32,46096,6.38,72046.0,-5.21,-5.97,-5.97,0,*5B
1488319389.52,46097,6.38,72056.3,-5.21,-5.97,-5.97,0,*5A
1488319390.72,46098,6.31,72064.8,-5.21,-6.01,-6.01,0,*55
1488319391.91,46099,6.38,72044.5,-5.21,-6.01,-5.97,0,*58
1488319393.17,46100,6.38,72016.0,-5.19,-6.01,-5.89,0,*5D
1488319394.36,46101,6.38,72036.3,-5.21,-6.13,-6.01,0,*57
1488319395.56,46102,6.38,72018.3,-5.21,-6.05,-6.05,0,*57
1488319396.78,46103,6.38,72014.3,-5.19,-6.13,-6.13,0,*5D
1488319397.97,46104,6.38,72002.8,-5.21,-6.05,-6.05,0,*51
1488319399.17,46105,6.38,71944.3,-5.21,-6.13,-6.13,0,*50
1488319400.37,46106,6.38,71950.8,-5.21,-6.13,-6.13,0,*53
1488319401.57,46107,6.38,71996.0,-5.21,-6.13,-6.13,0,*52
1488319402.77,46108,6.38,71988.8,-5.21,-6.13,-6.05,0,*5A
1488319403.96,46109,6.38,71990.5,-5.21,-6.05,-6.05,0,*5C
1488319405.15,46110,6.38,72010.5,-5.21,-6.05,-6.05,0,*54
1488319406.35,46111,6.38,72054.5,-5.21,-6.05,-6.13,0,*52
1488319407.57,46112,6.31,72058.0,-5.19,-6.05,-6.01,0,*59
1488319408.76,46113,6.31,72072.8,-5.21,-5.97,-5.97,0,*57
1488319409.96,46114,6.38,72064.0,-5.21,-6.01,-5.97,0,*5C
1488319411.16,46115,6.38,72014.8,-5.21,-6.05,-6.05,0,*51
1488319412.35,46116,6.38,71962.3,-5.21,-6.01,-6.01,0,*52
1488319413.55,46117,6.38,71952.5,-5.21,-6.01,-6.01,0,*53
1488319414.77,46118,6.38,71954.0,-5.19,-5.97,-6.01,0,*5B
1488319415.99,46119,6.38,71972.8,-5.19,-6.13,-6.05,0,*51
1488319417.19,46120,6.38,71950.3,-5.21,-6.13,-6.05,0,*50
1488319418.39,46121,6.38,71920.0,-5.21,-6.13,-6.13,0,*56
1488319419.64,46122,6.38,71976.0,-5.21,-6.19,-6.19,0,*55
1488319420.84,46123,6.31,71950.3,-5.21,-6.05,-6.13,0,*53
1488319422.03,46124,6.31,71992.3,-5.21,-6.05,-6.13,0,*54
1488319423.23,46125,6.38,72054.8,-5.21,-6.05,-6.05,0,*52
1488319424.43,46126,6.31,72016.8,-5.21,-6.01,-6.01,0,*51
1488319425.62,46127,6.31,71916.0,-5.21,-6.13,-6.01,0,*53
1488319426.85,46128,6.38,71946.8,-5.21,-6.13,-6.19,0,*55
1488319428.08,46129,6.38,71938.8,-5.21,-6.13,-6.19,0,*54
1488319429.28,46130,6.31,71934.5,-5.21,-6.13,-6.13,0,*56
1488319430.5,46131,6.38,71964.5,-5.19,-6.05,-6.05,0,*5C
1488319431.69,46132,6.38,71962.3,-5.21,-6.05,-6.13,0,*53
1488319432.91,46133,6.38,72002.0,-5.21,-6.05,-6.19,0,*58
1488319434.13,46134,6.38,71940.8,-5.19,-6.05,-6.05,0,*59
1488319435.33,46135,6.31,71990.5,-5.21,-6.13,-6.13,0,*53
1488319436.52,46136,6.31,72024.5,-5.21,-6.05,-6.05,0,*50
1488319437.72,46137,6.38,72054.0,-5.21,-6.05,-6.05,0,*51
1488319438.91,46138,6.38,71952.5,-5.21,-6.05,-6.05,0,*5E
1488319440.13,46139,6.31,71952.0,-5.19,-6.13,-6.05,0,*53
1488319441.33,46140,6.38,71956.0,-5.21,-6.13,-6.13,0,*51
1488319442.61,46141,6.38,71992.0,-5.19,-6.19,-6.19,0,*5B
1488319443.8,46142,6.38,71974.3,-5.21,-6.13,-6.05,0,*54
1488319445.0,46143,6.38,71994.0,-5.21,-6.05,-6.13,0,*55
1488319446.19,46144,6.38,71992.8,-5.21,-6.05,-6.05,0,*55
1488319447.41,46145,6.38,71962.3,-5.19,-6.13,-6.13,0,*5F
1488319448.63,46146,6.31,71966.5,-5.19,-6.13,-6.05,0,*5B
1488319449.85,46147,6.38,71946.0,-5.19,-6.05,-6.13,0,*5A
1488319451.05,46148,6.38,71956.8,-5.21,-6.05,-6.13,0,*5E
1488319452.24,46149,6.31,71970.5,-5.21,-6.05,-6.05,0,*58
1488319453.43,46150,6.31,71960.8,-5.21,-6.05,-6.01,0,*54
1488319454.65,46151,6.38,71968.8,-5.19,-6.05,-6.01,0,*5E
1488319455.87,46152,6.38,71978.3,-5.19,-6.05,-6.05,0,*59
1488319457.06,46153,6.38,71998.8,-5.21,-6.05,-6.05,0,*53
1488319458.26,46154,6.31,71996.0,-5.21,-6.05,-6.05,0,*54
1488319459.45,46155,6.31,71988.5,-5.21,-6.05,-6.05,0,*55
1488319460.65,46156,6.38,72032.8,-5.21,-6.13,-6.05,0,*51
1488319461.84,46157,6.38,71986.3,-5.21,-6.05,-6.05,0,*57
1488319463.06,46158,6.31,72018.8,-5.19,-6.05,-6.05,0,*53
1488319464.27,46159,6.38,72074.3,-5.19,-6.05,-6.05,0,*52
1488319465.49,46160,6.38,72042.3,-5.19,-6.05,-6.01,0,*5C
1488319466.69,46161,6.31,71894.3,-5.21,-6.05,-6.05,0,*52
1488319467.91,46162,6.38,71776.5,-5.19,-6.39,-6.31,0,*52
1488319469.11,46163,6.38,71790.0,-5.21,-6.43,-6.51,0,*53
1488319470.36,46164,6.31,71896.5,-5.19,-6.31,-6.19,0,*56
1488319471.59,46165,6.38,71950.3,-5.21,-6.05,-6.19,0,*5B
1488319472.79,46166,6.38,71916.3,-5.21,-6.13,-6.13,0,*55
1488319474.01,46167,6.31,71962.3,-5.21,-6.19,-6.13,0,*5E
1488319475.21,46168,6.38,72084.3,-5.21,-6.13,-6.05,0,*5C
1488319476.43,46169,6.31,72008.0,-5.19,-6.05,-6.05,0,*51
1488319477.65,46170,6.31,71996.8,-5.19,-6.01,-6.01,0,*59
1488319478.85,46171,6.31,72010.5,-5.21,-5.97,-5.97,0,*53
1488319480.07,46172,6.38,71978.0,-5.19,-6.01,-6.01,0,*5B
1488319481.29,46173,6.38,71950.0,-5.19,-6.01,-6.01,0,*5A
1488319482.48,46174,6.31,71956.0,-5.21,-6.13,-6.13,0,*56
1488319483.7,46175,6.31,71946.8,-5.19,-6.05,-6.05,0,*5C
1488319484.9,46176,6.31,71972.5,-5.21,-6.05,-6.05,0,*54
1488319486.09,46177,6.31,71970.5,-5.21,-6.13,-6.05,0,*52
1488319487.29,46178,6.31,71954.3,-5.21,-6.05,-6.05,0,*5A
1488319488.48,46179,6.31,71962.0,-5.21,-6.05,-6.05,0,*5B
1488319489.67,46180,6.38,71992.0,-5.21,-6.05,-6.01,0,*59
1488319490.89,46181,6.31,72006.5,-5.19,-6.05,-6.05,0,*57
1488319492.11,46182,6.31,71966.0,-5.19,-6.01,-6.05,0,*50
1488319493.33,46183,6.31,71968.0,-5.19,-6.01,-6.05,0,*51
1488319494.55,46184,6.31,72014.5,-5.19,-6.01,-6.01,0,*52
1488319495.75,46185,6.31,72036.3,-5.21,-6.05,-6.01,0,*5C
1488319496.94,46186,6.31,71996.0,-5.21,-5.97,-5.97,0,*5B
1488319498.14,46187,6.38,72008.5,-5.21,-6.01,-6.01,0,*5A
1488319499.36,46188,6.38,72010.8,-5.19,-6.01,-6.01,0,*5E
1488319500.58,46189,6.31,72008.8,-5.19,-6.01,-5.97,0,*53
1488319501.8,46190,6.38,71980.3,-5.19,-6.05,-6.01,0,*53
1488319503.0,46191,6.31,71958.5,-5.21,-6.05,-6.13,0,*5A
1488319504.19,46192,6.31,71944.3,-5.21,-6.13,-6.13,0,*5E
1488319505.39,46193,6.31,71944.8,-5.21,-6.13,-6.13,0,*5F
1488319506.62,46194,6.31,71928.0,-5.19,-6.31,-6.31,0,*53
1488319507.89,46195,6.38,71964.5,-5.19,-6.27,-6.27,0,*52
1488319509.11,46196,6.31,71990.0,-5.21,-6.19,-6.13,0,*50
1488319510.31,46197,6.38,72022.5,-5.21,-6.05,-6.05,0,*5B
1488319511.51,46198,6.31,71978.8,-5.21,-6.13,-6.05,0,*53
1488319512.72,46199,6.38,72024.3,-5.19,-6.05,-6.05,0,*5E
1488319513.94,46200,6.31,71906.8,-5.19,-6.13,-6.13,0,*5D
1488319515.19,46201,6.31,71984.0,-5.21,-6.27,-6.19,0,*5A
1488319516.41,46202,6.31,72016.5,-5.19,-6.13,-6.13,0,*5F
1488319517.63,46203,6.38,72048.3,-5.19,-6.05,-6.05,0,*5E
1488319518.83,46204,6.31,72034.8,-5.21,-6.01,-5.97,0,*5E
1488319520.05,46205,6.31,72062.0,-5.19,-6.01,-6.01,0,*58
1488319521.25,46206,6.38,72034.0,-5.21,-6.01,-6.01,0,*50
1488319522.44,46207,6.38,72052.3,-5.21,-6.01,-6.05,0,*55
1488319523.66,46208,6.31,72024.8,-5.19,-6.13,-6.13,0,*55
1488319524.86,46209,6.31,72026.3,-5.21,-6.05,-6.05,0,*5F
1488319526.08,46210,6.38,72074.8,-5.19,-6.05,-6.05,0,*5C
1488319527.27,46211,6.38,72046.8,-5.21,-6.05,-6.05,0,*56
1488319528.46,46212,6.31,72052.8,-5.21,-6.05,-6.01,0,*51
1488319529.68,46213,6.31,72060.3,-5.19,-6.05,-6.01,0,*5B
1488319530.88,46214,6.38,72052.5,-5.21,-6.13,-6.13,0,*53
1488319532.1,46215,6.31,72056.3,-5.19,-6.05,-6.05,0,*59
1488319533.31,46216,6.31,72082.0,-5.19,-6.05,-5.97,0,*52
1488319534.53,46217,6.31,72062.0,-5.19,-5.97,-6.01,0,*57
1488319535.75,46218,6.38,72034.0,-5.19,-6.01,-6.01,0,*54
1488319536.97,46219,6.31,72050.5,-5.19,-6.01,-6.05,0,*51
1488319538.17,46220,6.38,72060.8,-5.21,-6.01,-6.05,0,*50
1488319539.39,46221,6.38,72076.8,-5.19,-5.97,-6.01,0,*52
1488319540.61,46222,6.31,71992.0,-5.19,-6.01,-6.01,0,*5D
1488319541.84,46223,6.31,71946.8,-5.21,-6.05,-6.19,0,*5A
1488319543.03,46224,6.31,71916.8,-5.21,-6.05,-6.05,0,*50
1488319544.25,46225,6.31,71942.3,-5.19,-6.13,-6.05,0,*5D
1488319545.45,46226,6.31,71954.3,-5.21,-6.05,-6.05,0,*52
1488319546.64,46227,6.38,71958.0,-5.21,-6.13,-6.13,0,*53
1488319547.9,46228,6.31,71876.5,-5.21,-6.19,-6.19,0,*5C
1488319549.12,46229,6.38,71892.3,-5.21,-6.31,-6.27,0,*5A
1488319550.37,46230,6.38,71940.0,-5.21,-6.27,-6.19,0,*58
1488319551.65,46231,6.31,71940.0,-5.19,-6.19,-6.27,0,*52
1488319552.86,46232,6.31,72018.3,-5.19,-6.05,-6.05,0,*5C
1488319554.08,46233,6.31,71958.3,-5.19,-6.05,-6.05,0,*5D
1488319555.27,46234,6.31,71954.0,-5.21,-6.05,-6.05,0,*51
1488319556.47,46235,6.31,71950.3,-5.21,-6.05,-6.05,0,*50
1488319557.66,46236,6.31,71968.3,-5.21,-6.05,-6.05,0,*53
1488319558.88,46237,6.31,71924.0,-5.19,-6.05,-6.05,0,*59
1488319560.09,46238,6.31,71960.0,-5.19,-6.05,-6.05,0,*56
1488319561.31,46239,6.31,71976.0,-5.19,-6.05,-6.05,0,*57
1488319562.53,46240,6.31,71972.0,-5.19,-6.05,-6.05,0,*59
1488319563.74,46241,6.31,71950.0,-5.19,-6.05,-6.05,0,*58
1488319564.94,46242,6.31,71928.3,-5.21,-6.05,-6.01,0,*54
1488319566.13,46243,6.31,71946.8,-5.21,-6.05,-6.01,0,*55
1488319567.35,46244,6.31,71898.8,-5.19,-6.05,-6.01,0,*59
1488319568.57,46245,6.31,71874.5,-5.19,-6.05,-6.13,0,*5B
1488319569.82,46246,6.31,71908.3,-5.21,-6.27,-6.19,0,*59
1488319571.01,46247,6.31,71900.5,-5.21,-6.05,-6.05,0,*55
1488319572.21,46248,6.31,71914.0,-5.21,-6.13,-6.05,0,*5D
1488319573.43,46249,6.31,71942.5,-5.19,-6.13,-6.05,0,*57
1488319574.65,46250,6.31,71966.0,-5.19,-6.05,-6.05,0,*58
1488319575.84,46251,6.31,71972.3,-5.21,-6.05,-6.05,0,*52
1488319577.03,46252,6.31,72022.8,-5.21,-6.05,-6.01,0,*55
1488319578.25,46253,6.31,72008.0,-5.19,-6.01,-5.97,0,*57
1488319579.48,46254,6.31,72024.8,-5.19,-6.01,-6.01,0,*5C
1488319580.7,46255,6.31,72042.5,-5.19,-6.01,-6.01,0,*5D
1488319581.89,46256,6.31,72008.8,-5.21,-6.01,-5.97,0,*59
1488319583.12,46257,6.31,72000.8,-5.19,-6.01,-6.01,0,*5F
1488319584.34,46258,6.31,72014.0,-5.19,-6.01,-5.97,0,*5C
1488319585.56,46259,6.31,72010.3,-5.19,-5.97,-5.97,0,*51
1488319586.81,46260,6.31,72038.5,-5.19,-5.97,-5.89,0,*54
1488319588.03,46261,6.31,72056.5,-5.19,-6.01,-5.97,0,*56
1488319589.25,46262,6.31,72046.0,-5.19,-6.01,-6.01,0,*59
1488319590.44,46263,6.31,72032.5,-5.17,-5.97,-5.97,0,*56
1488319591.64,46264,6.31,72070.5,-5.17,-6.01,-5.97,0,*5D
1488319592.89,46265,6.31,72068.5,-5.17,-5.93,-5.93,0,*50
1488319594.09,46266,6.31,72040.0,-5.17,-5.97,-6.01,0,*5F
1488319595.3,46267,6.31,72020.5,-5.19,-6.05,-6.13,0,*5B
1488319596.52,46268,6.31,71916.5,-5.19,-6.13,-6.05,0,*54
1488319597.79,46269,6.31,71834.5,-5.19,-6.27,-6.27,0,*52
1488319599.02,46270,6.31,71882.3,-5.19,-6.31,-6.31,0,*5A
1488319600.27,46271,6.31,71922.3,-5.19,-6.31,-6.27,0,*5C
1488319601.52,46272,6.31,71988.3,-5.19,-6.31,-6.27,0,*5F
1488319602.71,46273,6.31,72020.5,-5.21,-6.13,-6.05,0,*55
1488319603.91,46274,6.31,72008.5,-5.17,-6.09,-6.01,0,*58
1488319605.11,46275,6.31,71996.5,-5.21,-6.05,-6.05,0,*54
1488319606.33,46276,6.31,71974.5,-5.19,-6.13,-6.13,0,*5C
1488319607.55,46277,6.31,71946.5,-5.19,-6.13,-6.05,0,*5A
1488319608.76,46278,6.31,71934.8,-5.19,-6.05,-6.13,0,*55
1488319609.98,46279,6.31,71892.3,-5.19,-6.05,-6.05,0,*53
1488319611.18,46280,6.31,71914.5,-5.21,-6.05,-6.01,0,*5A
1488319612.4,46281,6.31,71974.3,-5.19,-6.01,-6.01,0,*54
1488319613.62,46282,6.31,71968.5,-5.19,-6.01,-5.97,0,*5B
1488319614.84,46283,6.31,71956.3,-5.19,-6.01,-6.01,0,*56
1488319616.04,46284,6.31,71978.8,-5.21,-6.01,-6.01,0,*5A
1488319617.23,46285,6.31,71978.5,-5.17,-6.01,-5.97,0,*52
1488319618.45,46286,6.31,72012.5,-5.19,-6.05,-6.01,0,*57
1488319619.67,46287,6.31,71954.3,-5.19,-6.05,-6.01,0,*56
1488319620.86,46288,6.38,72080.3,-5.21,-6.05,-6.05,0,*56
1488319622.08,46289,6.31,72076.0,-5.19,-6.05,-6.05,0,*5C
1488319623.29,46290,6.31,72072.8,-5.19,-6.05,-6.05,0,*54
1488319624.54,46291,6.31,71966.5,-5.19,-6.19,-6.13,0,*5F
1488319625.82,46292,6.31,71884.0,-5.19,-6.19,-6.27,0,*5B
1488319627.08,46293,6.31,71908.3,-5.19,-6.27,-6.27,0,*57
1488319628.35,46294,6.31,71916.0,-5.19,-6.27,-6.27,0,*50
1488319629.6,46295,6.31,71932.0,-5.19,-6.19,-6.13,0,*5B
1488319630.82,46296,6.31,72002.3,-5.19,-6.05,-6.05,0,*52
1488319632.01,46297,6.31,71994.0,-5.17,-6.01,-6.01,0,*5D
1488319633.21,46298,6.31,71932.8,-5.13,-6.01,-5.97,0,*5A
1488319634.43,46299,6.31,71890.8,-5.19,-6.13,-6.13,0,*5D
1488319635.65,46300,6.31,71898.3,-5.19,-6.13,-6.13,0,*5C
1488319636.88,46301,6.31,71908.8,-5.21,-6.13,-6.19,0,*5C
1488319638.1,46302,6.31,71932.5,-5.19,-6.13,-6.05,0,*59
1488319639.31,46303,6.31,71894.5,-5.19,-6.05,-6.05,0,*5F
1488319640.53,46304,6.31,71970.8,-5.19,-6.05,-6.05,0,*58
1488319641.75,46305,6.31,72016.8,-5.19,-6.13,-6.05,0,*5E
1488319642.97,46306,6.31,71990.0,-5.19,-6.05,-6.05,0,*5A
1488319644.16,46307,6.31,71970.5,-5.21,-6.05,-6.01,0,*54
1488319645.36,46308,6.31,71860.3,-5.21,-6.01,-5.97,0,*53
1488319646.58,46309,6.31,71880.5,-5.19,-6.01,-6.01,0,*55
1488319647.8,46310,6.31,71830.3,-5.19,-6.05,-6.05,0,*5D
1488319649.07,46311,6.31,71876.5,-5.19,-6.27,-6.19,0,*51
1488319650.29,46312,6.31,71898.3,-5.19,-6.05,-6.13,0,*58
1488319651.48,46313,6.31,71982.0,-5.17,-6.01,-6.01,0,*50
1488319652.7,46314,6.31,71968.8,-5.19,-6.05,-6.05,0,*59
1488319653.92,46315,6.31,71994.8,-5.19,-5.97,-6.01,0,*54
1488319655.14,46316,6.31,71994.0,-5.19,-6.01,-6.01,0,*5B
1488319656.42,46317,6.31,71988.0,-5.19,-5.89,-5.89,0,*5A
1488319657.67,46318,6.31,71994.5,-5.19,-5.97,-5.85,0,*56
1488319658.92,46319,6.31,71980.5,-5.19,-5.97,-5.85,0,*57
1488319660.15,46320,6.31,71952.3,-5.19,-6.13,-6.13,0,*5E
1488319661.4,46321,6.31,71936.3,-5.19,-6.13,-6.19,0,*55
1488319662.61,46322,6.31,71912.8,-5.19,-6.05,-6.05,0,*5C
1488319663.83,46323,6.31,71984.8,-5.19,-6.05,-6.05,0,*5D
1488319665.05,46324,6.31,71992.8,-5.19,-6.01,-6.05,0,*5E
1488319666.27,46325,6.31,71928.3,-5.19,-6.13,-6.05,0,*5C
1488319667.49,46326,6.31,71908.5,-5.19,-6.13,-6.13,0,*58
1488319668.71,46327,6.31,72004.8,-5.19,-6.05,-6.13,0,*5E
1488319669.93,46328,6.31,71990.8,-5.19,-6.05,-6.05,0,*56
1488319671.15,46329,6.31,71996.8,-5.19,-6.01,-6.01,0,*57
1488319672.37,46330,6.31,72016.3,-5.19,-6.01,-5.97,0,*53
1488319673.59,46331,6.31,72010.0,-5.19,-6.01,-6.01,0,*5E
1488319674.81,46332,6.31,71990.0,-5.19,-6.05,-6.01,0,*59
1488319676.02,46333,6.31,71952.5,-5.19,-6.05,-6.05,0,*5C
1488319677.22,46334,6.31,71938.3,-5.17,-5.97,-6.01,0,*59
1488319678.47,46335,6.31,71938.5,-5.13,-5.89,-5.89,0,*50
1488319679.66,46336,6.31,71950.8,-5.17,-5.97,-5.97,0,*57
1488319680.86,46337,6.31,71950.5,-5.17,-5.97,-5.97,0,*56
1488319682.05,46338,6.31,71956.5,-5.17,-6.01,-6.01,0,*59
1488319683.27,46339,6.31,72000.3,-5.19,-6.05,-6.01,0,*52
1488319684.49,46340,6.31,72008.8,-5.19,-6.01,-5.97,0,*54
1488319685.71,46341,6.31,72018.0,-5.19,-5.97,-5.97,0,*59
1488319686.93,46342,6.31,72026.3,-5.19,-6.01,-6.01,0,*5A
1488319688.15,46343,6.31,72048.0,-5.19,-5.97,-5.97,0,*5B
1488319689.38,46344,6.31,72068.5,-5.17,-5.97,-5.93,0,*56
1488319690.57,46345,6.31,72066.0,-5.17,-5.97,-5.97,0,*53
1488319691.82,46346,6.31,72064.0,-5.13,-5.93,-5.93,0,*54
1488319693.02,46347,6.31,71948.0,-5.17,-6.01,-5.97,0,*5D
1488319694.21,46348,6.31,71962.8,-5.17,-6.01,-6.01,0,*5E
1488319695.41,46349,6.31,71840.0,-5.17,-6.09,-6.01,0,*57
1488319696.61,46350,6.31,71918.5,-5.13,-6.09,-5.97,0,*57
1488319697.8,46351,6.31,71880.3,-5.17,-6.01,-6.01,0,*56
1488319698.99,46352,6.31,71884.0,-5.13,-6.05,-6.05,0,*51
1488319700.19,46353,6.31,71898.3,-5.17,-6.09,-6.09,0,*54
1488319701.39,46354,6.31,71896.0,-5.17,-6.01,-6.01,0,*53
1488319702.58,46355,6.31,72006.3,-5.13,-6.01,-6.09,0,*5E
1488319703.78,46356,6.31,71934.5,-5.17,-6.13,-6.09,0,*5A
1488319705.0,46357,6.31,72010.3,-5.19,-6.13,-6.13,0,*5E
1488319706.19,46358,6.31,72002.0,-5.17,-6.09,-6.01,0,*57
1488319707.39,46359,6.31,71986.0,-5.17,-6.01,-6.09,0,*56
1488319708.58,46360,6.31,71984.0,-5.17,-6.01,-6.09,0,*5C
1488319709.78,46361,6.31,72042.0,-5.17,-6.01,-6.01,0,*55
1488319710.98,46362,6.31,71994.0,-5.17,-6.09,-6.09,0,*56